This is the latest recevied weather packets stored in our database for station/object JE0GNV-13. If no packets are shown the sender has not sent any weather packets the latest 10 day(s).
| Time | Temp. | Humidity | Pressure | Rain* | Wind** | Luminosity | Snow |
|---|---|---|---|---|---|---|---|
| 1777885200 | 12.78° C | 59% | 1004.1 hPa | 0 mm | - | - | - |
| 1777884600 | 12.78° C | 57% | 1004 hPa | 0 mm | - | - | - |
| 1777884000 | 13.33° C | 57% | 1004 hPa | 0 mm | - | - | - |
| 1777883402 | 13.33° C | 56% | 1003.5 hPa | 0 mm | - | - | - |
| 1777882800 | 13.89° C | 52% | 1003.1 hPa | 0 mm | - | - | - |
| 1777882200 | 14.44° C | 51% | 1003 hPa | 0 mm | - | - | - |
| 1777881601 | 14.44° C | 49% | 1002.6 hPa | 0 mm | - | - | - |
| 1777881000 | 15° C | 48% | 1002.3 hPa | 0 mm | - | - | - |
| 1777880400 | 15.56° C | 51% | 1002.2 hPa | 0 mm | - | - | - |
| 1777879801 | 15° C | 55% | 1002.2 hPa | 0 mm | - | - | - |
| 1777879200 | 15° C | 59% | 1002.1 hPa | 0 mm | - | - | - |
| 1777878601 | 15° C | 54% | 1002.1 hPa | 0 mm | - | - | - |
| 1777878000 | 15° C | 56% | 1001.6 hPa | 0 mm | - | - | - |
| 1777877401 | 15.56° C | 58% | 1001.6 hPa | 0 mm | - | - | - |
| 1777876800 | 15.56° C | 58% | 1001.6 hPa | 0 mm | - | - | - |
| 1777876201 | 16.67° C | 54% | 1000.9 hPa | 0 mm | - | - | - |
| 1777875602 | 16.67° C | 50% | 1000.7 hPa | 0 mm | - | - | - |
| 1777875001 | 17.22° C | 50% | 1000.7 hPa | 0 mm | - | - | - |
| 1777874401 | 17.22° C | 52% | 1000.8 hPa | 0 mm | - | - | - |
| 1777873801 | 17.22° C | 53% | 1000.6 hPa | 0 mm | - | - | - |
| 1777873202 | 17.22° C | 57% | 1000.5 hPa | 0 mm | - | - | - |
| 1777872601 | 17.22° C | 58% | 1000.2 hPa | 0 mm | - | - | - |
| 1777872002 | 17.78° C | 57% | 1000.1 hPa | 0 mm | - | - | - |
| 1777871402 | 17.78° C | 55% | 1000.1 hPa | 0 mm | - | - | - |
| 1777870801 | 18.89° C | 50% | 999.6 hPa | 0 mm | - | - | - |
* Rain latest hour (hover to see other rain measurements)
** Current wind speed in m/s (hover to see current wind gust speed)